Location: *
(40.4000°N, 15.1200°E)
Time: 08:00:18
(UTC+00:00)

Cosmos 1340 Rocket - Pass Details

Date: 09 April 2020
Orbit: 529 x 559 km, 81.2° (Epoch: 24 May)

Event Time Altitude Azimuth Distance (km) Brightness Sun altitude
Rises 19:03:56 0° 199° (SSW) 2,726 6.3 -17.2°
Reaches altitude 10° 19:06:09 10° 205° (SSW) 1,832 5.4 -17.6°
Maximum altitude 19:10:06 52° 281° (WNW) 694 3.7 -18.2°
Drops below altitude 10° 19:14:03 10° 359° (N) 1,832 5.8 -18.9°
Sets 19:16:16 0° 5° (N) 2,725 6.7 -19.3°
